CW3783 Weather Reports


time (UTC)temp
C
wind
direction
speed
KPH
gust
KPH
rain 1hr
cm
rain 24hr
cm
rain mn
cm
humidity
%
barometer
mb
20260510120803 15 197 3.2 4.8 0.00 0.00 0.00 91 1011.5
20260510120303 15 218 3.2 4.8 0.00 0.00 0.00 92 1011.5
20260510115803 14 210 3.2 4.8 0.00 0.00 0.00 93 1011.4
20260510115306 14 155 3.2 4.8 0.00 0.00 0.00 94 1011.3
20260510114803 13 175 1.6 3.2 0.00 0.00 0.00 94 1011.3
20260510114304 13 175 0.0 1.6 0.00 0.00 0.00 94 1011.2
20260510113803 13 175 0.0 1.6 0.00 0.00 0.00 94 1011.1
20260510113303 13 175 1.6 3.2 0.00 0.00 0.00 94 1011.1
20260510111804 12 185 0.0 3.2 0.00 0.00 0.00 94 1010.9
20260510111303 12 185 1.6 3.2 0.00 0.00 0.00 94 1010.9
20260510110803 12 359 1.6 3.2 0.00 0.00 0.00 94 1010.8
20260510110303 11 359 0.0 3.2 0.00 0.00 0.00 94 1010.7
20260510105803 11 359 0.0 1.6 0.00 0.00 0.00 94 1010.7
20260510105306 11 359 1.6 3.2 0.00 0.00 0.00 94 1010.5
20260510104804 11 359 1.6 3.2 0.00 0.00 0.00 93 1010.5
20260510104304 11 359 1.6 3.2 0.00 0.00 0.00 93 1010.4
20260510103303 11 359 3.2 4.8 0.00 0.00 0.00 93 1010.3
20260510102803 11 4 3.2 4.8 0.00 0.00 0.00 92 1010.2
20260510101804 11 175 0.0 0.0 0.00 0.00 0.00 92 1009.9
20260510101303 11 175 0.0 0.0 0.00 0.00 0.00 92 1009.9
20260510100803 11 175 0.0 0.0 0.00 0.00 0.00 92 1009.8
20260510100303 11 175 0.0 3.2 0.00 0.00 0.00 92 1009.8
20260510095803 11 173 1.6 4.8 0.00 0.00 0.00 92 1009.8
20260510095305 11 335 1.6 3.2 0.00 0.00 0.00 92 1009.8
20260510094803 11 335 0.0 3.2 0.00 0.00 0.00 92 1009.7
20260510093304 11 352 3.2 8.0 0.00 0.00 0.00 92 1009.7
20260510092803 11 350 3.2 4.8 0.00 0.00 0.00 92 1009.7
20260510091803 11 5 1.6 3.2 0.00 0.00 0.00 92 1009.7
20260510090803 11 346 1.6 4.8 0.00 0.00 0.00 91 1009.7
20260510085804 11 346 1.6 4.8 0.00 0.00 0.00 91 1009.7
20260510084803 11 343 4.8 11.3 0.00 0.00 0.00 91 1009.6
20260510084303 11 2 0.0 4.8 0.00 0.00 0.00 91 1009.6
20260510083803 11 344 3.2 8.0 0.00 0.00 0.00 91 1009.6
20260510083303 11 0 4.8 8.0 0.00 0.00 0.00 91 1009.7
20260510082803 11 353 3.2 4.8 0.00 0.00 0.00 90 1009.5
20260510082306 11 310 3.2 4.8 0.00 0.00 0.00 90 1009.4
20260510081803 11 349 1.6 4.8 0.00 0.00 0.00 90 1009.3
20260510081304 11 349 1.6 3.2 0.00 0.00 0.00 90 1009.3
20260510080804 11 349 1.6 3.2 0.00 0.00 0.00 90 1009.2
20260510080304 11 349 3.2 4.8 0.00 0.00 0.00 90 1009.1
20260510075804 12 349 1.6 3.2 0.00 0.00 0.00 90 1009.1
20260510075306 12 349 3.2 3.2 0.00 0.00 0.00 90 1009.0
20260510074803 12 349 1.6 3.2 0.00 0.00 0.00 89 1008.9
20260510073803 12 349 0.0 1.6 0.00 0.00 0.00 89 1008.8
20260510073303 12 349 1.6 3.2 0.00 0.00 0.00 89 1008.7
20260510072306 12 349 3.2 8.0 0.00 0.00 0.00 89 1008.6
20260510071803 12 349 0.0 0.0 0.00 0.00 0.00 88 1008.6
20260510070303 12 349 0.0 1.6 0.00 0.00 0.00 88 1008.6
20260510065803 12 349 0.0 3.2 0.00 0.00 0.00 88 1008.6
20260510065306 12 349 3.2 4.8 0.00 0.00 0.00 88 1008.5
20260510064803 12 349 3.2 4.8 0.00 0.00 0.00 87 1008.5
20260510064303 12 349 1.6 3.2 0.00 0.00 0.00 87 1008.4
20260510063803 12 349 1.6 3.2 0.00 0.00 0.00 87 1008.3
20260510062803 13 349 1.6 3.2 0.00 0.00 0.00 87 1008.3
20260510062306 13 349 1.6 4.8 0.00 0.00 0.00 87 1008.3
20260510061804 13 349 1.6 3.2 0.00 0.00 0.00 87 1008.4
20260510061303 13 349 1.6 3.2 0.00 0.00 0.00 87 1008.4
20260510060804 13 349 1.6 4.8 0.00 0.00 0.00 87 1008.4
20260510060305 13 9 4.8 4.8 0.00 0.00 0.00 87 1008.3
20260510055804 13 343 0.0 0.0 0.00 0.00 0.00 87 1008.5
20260510055306 13 343 1.6 4.8 0.00 0.00 0.00 87 1008.5
20260510054804 13 343 1.6 3.2 0.00 0.00 0.00 86 1008.6
20260510054304 13 343 1.6 4.8 0.00 0.00 0.00 86 1008.6
20260510053804 13 351 3.2 4.8 0.00 0.00 0.00 86 1008.6
20260510053303 13 348 3.2 4.8 0.00 0.00 0.00 86 1008.6
20260510052803 13 355 4.8 4.8 0.00 0.00 0.00 85 1008.6
20260510052306 13 357 3.2 4.8 0.00 0.00 0.00 85 1008.6
20260510051803 13 357 3.2 4.8 0.00 0.00 0.00 85 1008.5
20260510051303 14 342 3.2 4.8 0.00 0.00 0.00 85 1008.5
20260510050803 14 356 3.2 4.8 0.00 0.00 0.00 85 1008.6
20260510045803 14 73 4.8 4.8 0.00 0.00 0.00 84 1008.6
20260510045306 14 73 1.6 4.8 0.00 0.00 0.00 84 1008.6
20260510044303 14 73 0.0 0.0 0.00 0.00 0.00 84 1008.6
20260510043803 15 73 0.0 0.0 0.00 0.00 0.00 84 1008.7
20260510043303 15 73 0.0 0.0 0.00 0.00 0.00 83 1008.6
20260510042804 15 73 0.0 0.0 0.00 0.00 0.00 83 1008.7
20260510041804 15 73 0.0 0.0 0.00 0.00 0.00 83 1008.6
20260510040803 15 73 0.0 0.0 0.00 0.00 0.00 83 1008.6
20260510040303 15 73 0.0 0.0 0.00 0.00 0.00 83 1008.6
20260510035804 15 73 0.0 0.0 0.00 0.00 0.00 82 1008.6
20260510035306 15 73 0.0 0.0 0.00 0.00 0.00 82 1008.6
20260510034804 15 73 1.6 4.8 0.00 0.00 0.00 82 1008.5
20260510034304 15 73 1.6 4.8 0.00 0.00 0.00 82 1008.5
20260510033803 15 73 0.0 0.0 0.00 0.00 0.00 82 1008.5
20260510033303 15 73 0.0 1.6 0.00 0.00 0.00 82 1008.5
20260510032306 15 73 0.0 3.2 0.00 0.00 0.00 82 1008.5
20260510031803 16 73 1.6 4.8 0.00 0.00 0.00 82 1008.6
20260510031304 16 73 1.6 4.8 0.00 0.00 0.00 82 1008.5
20260510030804 16 73 1.6 3.2 0.00 0.00 0.00 81 1008.4
20260510030303 16 73 1.6 4.8 0.00 0.00 0.00 81 1008.4
20260510025803 16 73 3.2 4.8 0.00 0.00 0.00 81 1008.4
20260510025306 16 73 3.2 4.8 0.00 0.00 0.00 81 1008.4
20260510024804 16 73 1.6 4.8 0.00 0.00 0.00 81 1008.4
20260510024303 16 73 3.2 4.8 0.00 0.00 0.00 80 1008.4
20260510023803 16 87 1.6 4.8 0.00 0.00 0.00 80 1008.3
20260510023303 16 96 3.2 9.7 0.00 0.00 0.00 80 1008.3
20260510022306 16 72 3.2 4.8 0.00 0.00 0.00 80 1008.3
20260510021803 16 78 3.2 11.3 0.00 0.00 0.00 79 1008.4
20260510021303 16 78 3.2 11.3 0.00 0.00 0.00 79 1008.4
20260510020803 16 84 3.2 9.7 0.00 0.00 0.00 79 1008.3
20260510015803 17 81 3.2 12.9 0.00 0.00 0.00 78 1008.3
20260510015306 17 69 4.8 8.0 0.00 0.00 0.00 78 1008.3
20260510014803 17 74 4.8 8.0 0.00 0.00 0.00 78 1008.2
20260510014303 17 105 3.2 9.7 0.00 0.00 0.00 78 1008.1
20260510013803 17 82 4.8 12.9 0.00 0.00 0.00 77 1008.2
20260510013303 17 87 4.8 12.9 0.00 0.00 0.00 77 1008.1
20260510012803 17 100 4.8 9.7 0.00 0.00 0.00 76 1008.1
20260510012306 17 146 3.2 8.0 0.00 0.00 0.00 75 1008.0
20260510011803 17 129 3.2 4.8 0.00 0.00 0.00 74 1007.8
20260510011303 17 101 4.8 9.7 0.00 0.00 0.00 74 1007.7
20260510010803 17 146 3.2 4.8 0.00 0.00 0.00 73 1007.7
20260510010304 17 159 3.2 4.8 0.00 0.00 0.00 73 1007.6
20260510005804 18 156 3.2 4.8 0.00 0.00 0.00 72 1007.6
20260510004803 18 151 4.8 8.0 0.00 0.00 0.00 71 1007.5
20260510004303 18 120 3.2 4.8 0.00 0.00 0.00 71 1007.5
20260510003804 18 121 3.2 4.8 0.00 0.00 0.00 71 1007.3
20260510003303 18 139 3.2 8.0 0.00 0.00 0.00 70 1007.3
20260510002306 18 118 4.8 4.8 0.00 0.00 0.00 70 1007.3
20260510001803 19 118 3.2 4.8 0.00 0.00 0.00 69 1007.3
20260510001303 19 106 1.6 4.8 0.00 0.00 0.00 69 1007.2
20260510000803 19 120 3.2 4.8 0.00 0.00 0.00 69 1007.2
20260510000304 19 106 3.2 4.8 0.00 0.00 0.00 69 1007.2
20260509235804 19 110 8.0 9.7 0.00 0.00 0.00 69 1007.2
20260509235306 20 113 3.2 9.7 0.00 0.00 0.00 68 1007.1
20260509234803 20 118 3.2 11.3 0.00 0.00 0.00 68 1007.0
20260509234303 20 114 4.8 11.3 0.00 0.00 0.00 68 1007.0
20260509233303 20 101 4.8 9.7 0.00 0.00 0.00 67 1007.0
20260509232805 20 131 6.4 12.9 0.00 0.00 0.00 67 1006.8
20260509232306 20 111 4.8 9.7 0.00 0.00 0.00 66 1006.8
20260509230804 20 141 4.8 8.0 0.00 0.00 0.00 65 1006.7
20260509230304 20 153 4.8 9.7 0.00 0.00 0.00 65 1006.7
20260509225306 20 144 4.8 4.8 0.00 0.00 0.00 64 1006.7
20260509224303 20 165 4.8 4.8 0.00 0.00 0.00 64 1006.7
20260509223303 20 102 6.4 11.3 0.00 0.00 0.00 63 1006.8
20260509222306 21 94 8.0 12.9 0.00 0.00 0.00 63 1006.9
20260509221803 21 145 4.8 8.0 0.00 0.00 0.00 63 1006.8
20260509220803 21 104 8.0 14.5 0.00 0.00 0.00 63 1006.9
20260509220303 21 133 8.0 19.3 0.00 0.00 0.00 64 1006.9
20260509215803 21 107 8.0 12.9 0.00 0.00 0.00 64 1006.8
20260509215306 21 107 4.8 11.3 0.00 0.00 0.00 64 1006.8
20260509214803 21 128 4.8 9.7 0.00 0.00 0.00 63 1006.9
20260509214303 21 105 6.4 11.3 0.00 0.00 0.00 63 1007.0
20260509213803 21 101 4.8 11.3 0.00 0.00 0.00 63 1007.0
20260509213303 21 133 9.7 16.1 0.00 0.00 0.00 62 1006.9
20260509212804 21 118 9.7 14.5 0.00 0.00 0.00 62 1006.9
20260509212306 22 152 8.0 14.5 0.00 0.00 0.00 62 1006.9
20260509211804 22 105 9.7 14.5 0.00 0.00 0.00 62 1006.9
20260509211304 22 117 8.0 14.5 0.00 0.00 0.00 62 1006.8
20260509210805 22 135 4.8 14.5 0.00 0.00 0.00 61 1006.8
20260509210303 22 86 3.2 12.9 0.00 0.00 0.00 61 1006.7
20260509205803 22 151 9.7 14.5 0.00 0.00 0.00 61 1006.7
20260509205306 22 175 1.6 4.8 0.00 0.00 0.00 60 1006.7
20260509204803 22 93 1.6 4.8 0.00 0.00 0.00 60 1006.6
20260509203804 22 157 11.3 14.5 0.00 0.00 0.00 61 1006.7
20260509203304 22 133 8.0 19.3 0.00 0.00 0.00 61 1006.6
20260509202803 21 135 8.0 14.5 0.00 0.00 0.00 61 1006.6
20260509201303 21 105 8.0 14.5 0.00 0.00 0.00 61 1006.8
20260509200803 21 174 6.4 12.9 0.00 0.00 0.00 61 1006.9
20260509200303 21 108 4.8 11.3 0.00 0.00 0.00 62 1007.0
20260509195306 21 146 1.6 11.3 0.00 0.00 0.00 61 1007.2
20260509193803 21 148 8.0 12.9 0.00 0.00 0.00 60 1007.5
20260509193303 21 180 4.8 12.9 0.00 0.00 0.00 60 1007.6
20260509192804 21 174 3.2 8.0 0.00 0.00 0.00 59 1007.4
20260509192305 21 129 4.8 12.9 0.00 0.00 0.00 59 1007.5
20260509191803 21 142 4.8 8.0 0.00 0.00 0.00 60 1007.5
20260509191303 21 138 8.0 14.5 0.00 0.00 0.00 59 1007.6
20260509190803 21 132 8.0 12.9 0.00 0.00 0.00 58 1007.7
20260509190303 21 135 6.4 14.5 0.00 0.00 0.00 59 1007.9
20260509185803 20 136 6.4 12.9 0.00 0.00 0.00 60 1007.9
20260509185306 20 131 8.0 16.1 0.00 0.00 0.00 60 1007.8
20260509184804 20 126 6.4 9.7 0.00 0.00 0.00 60 1007.8
20260509184303 20 91 3.2 4.8 0.00 0.00 0.00 61 1008.0
20260509183803 20 26 3.2 4.8 0.00 0.00 0.00 61 1008.0
20260509183303 20 39 3.2 4.8 0.00 0.00 0.00 61 1008.0
20260509182803 20 46 3.2 8.0 0.00 0.00 0.00 62 1008.0
20260509182306 19 9 6.4 14.5 0.00 0.00 0.00 62 1008.1
20260509181803 19 26 3.2 8.0 0.00 0.00 0.00 62 1008.2
20260509180803 19 356 8.0 11.3 0.00 0.00 0.00 61 1008.5
20260509175803 20 4 8.0 14.5 0.00 0.00 0.00 61 1008.7
20260509175306 20 346 9.7 14.5 0.00 0.00 0.00 61 1008.7
20260509174304 19 314 3.2 4.8 0.00 0.00 0.00 62 1008.6
20260509173804 19 19 4.8 9.7 0.00 0.00 0.00 62 1008.6
20260509173303 19 346 6.4 11.3 0.00 0.00 0.00 62 1008.6
20260509172803 19 344 6.4 11.3 0.00 0.00 0.00 63 1008.6
20260509172306 19 326 3.2 11.3 0.00 0.00 0.00 64 1008.7
20260509171304 19 337 4.8 11.3 0.00 0.00 0.00 62 1008.7
20260509170803 19 306 6.4 9.7 0.00 0.00 0.00 62 1008.9
20260509170303 19 1 3.2 8.0 0.00 0.00 0.00 62 1008.8
20260509165306 20 7 1.6 4.8 0.00 0.00 0.00 61 1008.7
20260509163804 20 202 1.6 4.8 0.00 0.00 0.00 59 1008.9
20260509163303 20 229 4.8 16.1 0.00 0.00 0.00 59 1008.9
20260509162804 20 201 6.4 12.9 0.00 0.00 0.00 59 1008.8
20260509162307 20 193 6.4 16.1 0.00 0.00 0.00 59 1008.9
20260509161803 20 196 6.4 19.3 0.00 0.00 0.00 58 1008.9
20260509161304 20 221 6.4 19.3 0.00 0.00 0.00 58 1008.9
20260509160803 20 172 11.3 19.3 0.00 0.00 0.00 59 1009.1
20260509160303 20 214 8.0 19.3 0.00 0.00 0.00 59 1009.1
20260509155803 20 222 9.7 20.9 0.00 0.00 0.00 60 1009.1
20260509155306 20 194 9.7 20.9 0.00 0.00 0.00 58 1009.2
20260509154304 20 238 4.8 12.9 0.00 0.00 0.00 59 1009.1
20260509153804 20 216 6.4 14.5 0.00 0.00 0.00 59 1009.1
20260509153303 19 185 3.2 12.9 0.00 0.00 0.00 61 1009.2
20260509152803 19 181 8.0 16.1 0.00 0.00 0.00 61 1009.3
20260509152305 18 214 3.2 8.0 0.00 0.00 0.00 63 1009.3
20260509151803 18 163 4.8 9.7 0.00 0.00 0.00 62 1009.4
20260509150305 17 236 8.0 12.9 0.00 0.00 0.00 63 1009.7
20260509145803 17 197 4.8 14.5 0.00 0.00 0.00 64 1009.8
20260509145309 17 201 4.8 9.7 0.00 0.00 0.00 64 1009.9
20260509144809 17 216 8.0 14.5 0.00 0.00 0.00 63 1010.0
20260509144313 17 197 4.8 14.5 0.00 0.00 0.00 63 1010.0
20260509143322 17 206 6.4 12.9 0.00 0.00 0.00 62 1010.0
20260509142817 17 219 4.8 12.9 0.00 0.00 0.00 62 1010.0
20260509142306 17 221 4.8 12.9 0.00 0.00 0.00 63 1009.9
20260509141803 17 193 9.7 14.5 0.00 0.00 0.00 62 1009.8
20260509141304 17 193 8.0 16.1 0.00 0.00 0.00 62 1009.8
20260509140804 17 208 8.0 19.3 0.00 0.00 0.00 62 1009.8
20260509135803 17 192 3.2 8.0 0.00 0.00 0.00 64 1009.8
20260509135306 17 286 3.2 9.7 0.00 0.00 0.00 64 1009.8
20260509134803 16 248 3.2 11.3 0.00 0.00 0.00 64 1009.9
20260509133803 16 192 8.0 14.5 0.00 0.00 0.00 63 1009.8
20260509133303 16 227 6.4 14.5 0.00 0.00 0.00 63 1009.8
20260509132803 16 217 9.7 19.3 0.00 0.00 0.00 63 1009.9
20260509132306 16 194 9.7 19.3 0.00 0.00 0.00 63 1009.8
20260509131803 16 207 9.7 20.9 0.00 0.00 0.00 63 1009.8
20260509131303 16 221 8.0 19.3 0.00 0.00 0.00 63 1009.8
20260509130803 16 237 6.4 16.1 0.00 0.00 0.00 63 1009.7
20260509130304 16 238 4.8 14.5 0.00 0.00 0.00 64 1009.7
20260509124804 16 234 3.2 14.5 0.00 0.00 0.00 65 1009.7
20260509124303 15 228 3.2 11.3 0.00 0.00 0.00 65 1009.8
20260509123803 15 225 4.8 11.3 0.00 0.00 0.00 65 1009.7
20260509122804 15 211 3.2 9.7 0.00 0.00 0.00 66 1009.6
20260509121305 15 177 4.8 11.3 0.00 0.00 0.00 65 1009.6